Retour au catalogue

STARLINK-11509

ActifCommunicationsVLEO
NORAD 63059·PAYLOAD·🇺🇸 United States

Lancé Feb 21, 2025 depuis Cape Canaveral Space Force Station

Loading…

Prochains Passages (prochaines 24 heures)

TLE

FraisSource: CelesTrak SupGP

Époque: Sep 14, 2026, 23:04 UTC

1 63059C 25035H   26257.96159722 -.00076137  00000+0 -59146-3 0  2571
2 63059  43.0003 314.7007 0001676 256.3020 183.5502 15.70871516    11

Suivez STARLINK-11509 en temps réel avec AllMySat

Download on the App Store